TimeCST,TemperatureF,Dew PointF,Humidity,Sea Level PressureIn,VisibilityMPH,Wind Direction,Wind SpeedMPH,Gust SpeedMPH,PrecipitationIn,Events,Conditions,WindDirDegrees,DateUTC
12:39 AM,12.2,6.8,79,30.15,2.0,West,16.1,-,0.00,Snow,Light Snow,270,2013-02-20 06:39:00
12:53 AM,12.0,7.0,80,30.21,2.5,West,17.3,-,0.00,Snow,Light Snow,270,2013-02-20 06:53:00
1:00 AM,12.2,6.8,79,30.16,4.0,West,13.8,-,0.00,Snow,Light Snow,280,2013-02-20 07:00:00
1:53 AM,12.0,6.1,77,30.22,10.0,West,12.7,-,0.00,,Overcast,280,2013-02-20 07:53:00
2:53 AM,10.9,3.9,73,30.24,10.0,West,13.8,-,N/A,,Overcast,270,2013-02-20 08:53:00
3:53 AM,10.9,5.0,77,30.25,8.0,West,13.8,-,N/A,,Overcast,270,2013-02-20 09:53:00
4:53 AM,10.9,3.9,73,30.27,6.0,West,13.8,-,0.00,Snow,Light Snow,280,2013-02-20 10:53:00
5:53 AM,10.9,3.9,73,30.27,10.0,WNW,10.4,-,0.00,,Overcast,290,2013-02-20 11:53:00
7:53 AM,12.0,5.0,73,30.30,7.0,WNW,10.4,-,0.00,,Overcast,290,2013-02-20 13:53:00
8:44 AM,14.0,6.8,73,30.26,2.5,WNW,9.2,-,0.00,Snow,Light Snow,300,2013-02-20 14:44:00
8:53 AM,14.0,8.1,77,30.31,3.0,West,10.4,-,0.00,Snow,Light Snow,280,2013-02-20 14:53:00
9:14 AM,15.8,8.6,73,30.27,2.0,WNW,11.5,-,0.00,Snow,Light Snow,290,2013-02-20 15:14:00
9:53 AM,15.1,8.1,74,30.33,2.5,West,13.8,-,0.00,Snow,Light Snow,280,2013-02-20 15:53:00
10:17 AM,15.8,8.6,73,30.29,3.0,WNW,10.4,-,0.00,Snow,Light Snow,300,2013-02-20 16:17:00
10:53 AM,17.1,9.0,71,30.35,4.0,WNW,12.7,-,0.00,Snow,Light Snow,300,2013-02-20 16:53:00
11:53 AM,19.0,9.0,65,30.34,9.0,WNW,11.5,19.6,0.00,,Overcast,300,2013-02-20 17:53:00
12:53 PM,21.0,10.0,63,30.35,10.0,NNW,8.1,-,0.00,,Overcast,330,2013-02-20 18:53:00
1:53 PM,21.9,10.9,63,30.36,10.0,Variable,6.9,-,N/A,,Partly Cloudy,0,2013-02-20 19:53:00
2:53 PM,23.0,10.9,60,30.35,10.0,North,9.2,-,N/A,,Clear,360,2013-02-20 20:53:00
3:53 PM,23.0,10.9,60,30.34,10.0,North,8.1,-,N/A,,Clear,350,2013-02-20 21:53:00
4:53 PM,21.0,10.9,65,30.35,10.0,North,6.9,-,N/A,,Clear,350,2013-02-20 22:53:00
5:53 PM,19.9,12.9,74,30.37,10.0,Calm,Calm,-,N/A,,Scattered Clouds,0,2013-02-20 23:53:00
6:06 PM,19.4,12.2,74,30.33,10.0,North,3.5,-,N/A,,Mostly Cloudy,10,2013-02-21 00:06:00
6:53 PM,21.0,14.0,74,30.36,10.0,NNE,4.6,-,N/A,,Overcast,20,2013-02-21 00:53:00
7:53 PM,21.9,14.0,72,30.37,10.0,Variable,6.9,-,N/A,,Overcast,0,2013-02-21 01:53:00
8:53 PM,21.9,15.1,75,30.36,10.0,North,5.8,-,N/A,,Overcast,360,2013-02-21 02:53:00
9:53 PM,23.0,17.1,78,30.36,10.0,North,3.5,-,0.00,,Overcast,360,2013-02-21 03:53:00
10:53 PM,24.1,17.1,75,30.35,10.0,Calm,Calm,-,N/A,,Overcast,0,2013-02-21 04:53:00
11:53 PM,24.1,18.0,77,30.35,10.0,Calm,Calm,-,N/A,,Overcast,0,2013-02-21 05:53:00